Location: Grieser Field
(39.7333°N, 81.7975°W)
Time: 04:29:14
(UTC-04:00)

MOS 1-B - Visible Passes

Search period start: 22 May 2015 00:00
Search period end: 01 June 2015 00:00
Orbit: 906 x 914 km, 99.2° (Epoch: 20 May)

Date Brightness Start Highest point End Pass type
(mag) Time Alt. Az. Time Alt. Az. Time Alt. Az.
22 May 5.3 03:28:07 10° NNE 03:33:34 41° E 03:36:45 23° SSE visible
22 May 5.5 05:10:22 10° N 05:15:16 28° WNW 05:20:00 10° WSW visible
23 May 5.1 03:33:33 10° NNE 03:39:07 46° E 03:42:23 24° SSE visible
23 May 5.6 05:16:01 10° N 05:20:45 26° WNW 05:25:21 10° WSW visible
24 May 4.9 03:39:00 10° NNE 03:44:39 52° E 03:48:02 24° SSE visible
24 May 5.7 05:21:41 10° NNW 05:26:13 23° WNW 05:30:35 10° WSW visible
25 May 4.8 03:44:28 10° NNE 03:50:12 58° E 03:53:40 24° S visible
25 May 5.8 05:27:22 10° NNW 05:31:41 21° WNW 05:35:48 10° WSW visible
26 May 4.6 03:49:56 10° NNE 03:55:44 64° ESE 03:59:18 24° S visible
27 May 4.5 03:55:26 10° NNE 04:01:15 72° ESE 04:04:56 24° S visible
28 May 4.4 04:00:57 10° NNE 04:06:47 80° ESE 04:10:34 23° S visible
29 May 6.8 02:28:13 10° ENE 02:29:29 11° E 02:31:11 10° ESE visible
29 May 4.3 04:06:27 10° NNE 04:12:18 88° ESE 04:16:12 22° SSW visible
30 May 6.7 02:32:54 10° ENE 02:35:06 13° E 02:37:42 10° ESE visible
30 May 4.3 04:11:58 10° NNE 04:17:49 84° WNW 04:21:49 21° SSW visible
31 May 6.6 02:37:52 10° ENE 02:40:43 14° E 02:43:54 10° ESE visible
31 May 4.3 04:17:29 10° N 04:23:19 76° WNW 04:27:27 20° SSW visible
